User: anonymous   Login
Location: Montauk Point State Park
(41.0718°N, 71.8593°W)
Time: 14:11:00
(UTC-05:00)
Language:

Cosmos 1844 - Orbit

View from above orbital plane
View from above orbital plane
View from above satellite
View from above satellite

Ground track
Ground track

The orbit data is extracted from the following two-line orbital elements,

1 17973U 87041A   17057.21160863  .00000325  00000-0  19544-3 0  9990
2 17973  70.8991 147.4544 0032908 290.5653  69.1938 14.14040088537454
Epoch (UTC): 26 February 2017 05:04:42
Eccentricity: 0.0032908
inclination: 70.8991°
perigee height: 822 km
apogee height: 869 km
right ascension of ascending node: 147.4544°
argument of perigee: 290.5653°
revolutions per day: 14.14040088
mean anomaly at epoch: 69.1938°
orbit number at epoch: 53745

The dashed part of the orbit path shows where the satellite is in the earth's shadow,  

DLR